Find Starlink 36801

NORAD ID: 67888 Int'l Des: 2026-035 Owner: SPXS Country: US Constellation: starlink operational
LEOCIRCULARRETROGRADE

現在のビュー

3D地球を読み込み中...

Starlink 36801について

説明を読み込み中...

次回通過

Passes for default location (London). Set your location on the main map for personalized predictions.

高度履歴

Loading altitude history...

軌道要素

1 67888U 26035K 26146.36922034 .00019312 00000-0 59908-3 0 9991
2 67888 97.2850 79.8924 0002341 103.4064 256.7440 15.33437878 15897
Epoch: May 26, 2026 • Age: 10 hours

現在のステータス

高度 482.5 km
速度 7.62 km/s
衛星直下点 -41.86°S, 81.06°E
打ち上げ日 Feb 21, 2026
運用期間 0.2 years
タイプ internet

技術仕様

分類 Payload
質量 575.00 kg
乾燥質量 530.00 kg
総質量 575.00 kg
長さ 0.30 m
直径 4.10 m
スパン 29.00 m
形状 Box + pan
製造者 SPXS
バスタイプ Starlink V2MO
フェーズステータス In Orbit
所有者/国 SPXS/US

Most Searched